Back to catalog

STARLINK-1039

AliveCommunicationsVLEO
NORAD 44744·PAYLOAD·🇺🇸 United States

Launched Nov 11, 2019 from Cape Canaveral Space Force Station

Loading…

Next Passes (next 24 hours)

TLE

FreshSource: CelesTrak SupGP

Epoch: Sep 14, 2026, 12:42 UTC

1 44744C 19074AH  26257.52965278  .00022692  00000+0  65762-3 0  2576
2 44744  53.0560  57.7961 0001795  79.4476 167.2076 15.34981534    11

Track STARLINK-1039 in real time with AllMySat

Download on the App Store